DELTA 1 DEB, 13537

Orbit data source: Space-Track

DELTA 1 DEB, 13537 is space debris in SSO originally from a launch on Thu, 29 Jul 1976 UTC launched from the Air Force Western Test Range (AFWTR). Debris objects in space refer to the collection of defunct objects orbiting the Earth. Examples of debris include non-operational satellites, rocket bodies, and fragments generated from explosions, collisions, or faulty payload assembly.

Loading next visibility...
Identifier
13537, 1976-077EK
Orbit
SSO
Country
Flag of USUS
Related business
Manufacturer
Unknown
Mission
Spacecraft
Bus & Motor
Unknown
Mass
Unknown
Launch date (UTC)
1976-07-29 (50 years ago)
Launch vehicle
Unknown
Launch site
Air Force Western Test Range (AFWTR)
Object type
Payload
Rocket body
Debris
Shape & HBR
Unknown shape, 0.1 m
Radar Cross Section
Small (<0.1 m²)

Expand to show TLE details & history
Last TLE update: 22 hours ago

TLE from 22 hours ago
0 DELTA 1 DEB
1 13537U 76077EK  26125.92187963 -.00000027  00000-0  16756-3 0  9995
2 13537 102.5509 111.5433 0075464   9.4170  17.5496 12.27244079128087
Epoch: 2026-05-05T22:07Z
TLE epoch observation values (Epoch: 2026-05-05T22:07:30.400Z)
Latitude
26.56325°
Longitude
-90.48227°
Altitude
1,506.935 km
Speed
7.139 km/s
True Right ascension
07h 00m 44s
True Declination
26° 26' 20"
Sunlit
Object was in daylight at epoch
Visualization orbit readout
Latitude
Unknown
Longitude
Unknown
Altitude
Unknown
Speed
Unknown
Apparent Right ascension
Unknown
Apparent Declination
Unknown
Sunlit
N/A
Visualization observer readout
Local Sidereal Time
03:56:12
Azimuth
Unknown
Elevation
Unknown
Doppler factor
Unknown
Orbital elements
Apogee altitude
1,618.664 km
Perigee altitude
1,498.874 km
Semi-major axis
7,936.906 km
Eccentricity
0.00755
Inclination
102.5509°
RAAN
111.5433°
Arg. of periapsis
9.417°
True anomaly
17.81271°
Mean anomaly
17.5496°
Eccentric anomaly
17.68092°
Mean motion
3.06949 °/min
Orbital period
117.28 mins
BSTAR
0.00016756
Loading maneuver chart data...
Computing Atmospheric mass density...
Loading historical data...
Loading historical data...
Loading historical data...
Loading historical data...
Loading historical data...
Loading historical data...
Loading historical data...

Documentation

Showing up to 5 results
|